sat.trackr.live / text

‹ back to catalog

SITRO-AIS 8 (ANOKHIN)

NORAD 57193 · 2023-091AD

PAYLOAD ACTIVE UNKNOWN

§ Identity

Operator
Country
CIS
Launch date
2023-06-27
Launch site
VOSTO
Launch vehicle
Mass (kg)
RCS (m²)

Purposes: tech_demo

External: N2YO · Heavens-Above · Gunter

§ Orbital elements

Epoch: 2026-05-25T03:47:43.358208Z

Period
94.03 min
Inclination
97.5068°
Eccentricity
0.0011179
Mean motion
15.31409278 rev/d
Perigee alt
463.9 km
Apogee alt
479.3 km
Semi-major
6,849.7 km
B*
4.3436e-4
RAAN
210.3444°
Arg perigee
171.7640°
Mean anomaly
188.3786°
Rev number
16,092

§ Raw data

SITRO-AIS 8 (ANOKHIN)1 57193U 23091AD  26145.15814072  .00013129  00000+0  43436-3 0  99942 57193  97.5068 210.3444 0011179 171.7640 188.3786 15.31409278160924

JSON: /api/v1/satellites/57193 · /tle

For live sub-satellite position, see the globe view (requires WebGL).

§ Visibility from observer

Set your observer location to see the next 7 days of passes ≥ 10°. The values pass through the URL so the page stays shareable.

No JS? Fill the form by hand. The geolocation button needs JavaScript.

§ Radio — SatNOGS DB

ModeDescriptionDownlinkUplink
GMSK USP Mode U - GMSK USP 2K4 TLM 401.230 MHz

1 transmitter · refreshed weekly from db.satnogs.org